Location: Mahannah Oil Field
(37.4664°N, 96.6003°W)
Time: 00:33:21
(UTC+00:00)

deb Explorer IX - Pass Details

Date: 30 January 2021
Orbit: 537 x 1102 km, 38.8° (Epoch: 25 February)

Event Time Altitude Azimuth Distance (km) Brightness Sun altitude
Rises 20:39:26 0° 230° (SW) 3,893 ? 28.3°
Reaches altitude 10° 20:42:17 10° 226° (SW) 2,949 ? 28.0°
Maximum altitude 20:49:17 50° 153° (SSE) 1,343 ? 27.2°
Drops below altitude 10° 20:55:57 10° 80° (E) 2,805 ? 26.5°
Sets 20:58:36 0° 75° (ENE) 3,691 ? 26.1°
